Flag for Canada Weather past 2 weeks in Vancouver, British Columbia, Canada

Now
70 °F

Scattered clouds.


Feels Like: 70 °F
Forecast: 58 / 67 °F
Wind: 5 mph from Southwest

Location: Vancouver International Airport

Current Time: Aug 4, 2015 at 7:48:59 PM

Latest Report: Aug 4, 2015 at 7:00 PM


Visibility: 30 mi

Pressure: 29.94 "Hg

Humidity: 64%

Dew point: 57 °F

Location of VancouverLocation

Historic Weather in Vancouver — Graph

°F

Vancouver temperature yesterday

Maximum temperature yesterday: 73 °F (at 12:00 PM)
Minimum temperature yesterday: 59 °F (at 5:00 AM)
Average temperature yesterday: 67 °F

Past Weeks' High & Low Weather Summary

 TemperatureHumidityPressure
High79 °F (Jul 30, 2:00 PM)94% (Jul 24, 10:00 AM)30.28 "Hg (Jul 24, 10:00 AM)
Low55 °F (Jul 27, 3:00 AM)46% (Jul 21, 7:00 PM)29.85 "Hg (Aug 3, 3:00 AM)
Average66 °F73%30.01 "Hg
* Reported Jul 20 6:00 PM — Aug 4 6:00 PM, Vancouver, Weather by CustomWeather, © 2015

Note: Actual official high and low records may vary slightly from our data, if they occured in-between our weather recording intervals... More about our weather records

Advertising

Vancouver weather history for previous 24 hours

 ConditionsComfort  
Time TempWeatherWind HumidityBarometerVisibility
6:00 PM
Tue, Aug 4
70 °FScattered clouds.7 mph60%29.95 "Hg30 mi
5:00 PM70 °FScattered clouds.8 mph60%29.96 "Hg30 mi
4:00 PM73 °FPassing clouds.8 mph57%29.97 "Hg30 mi
3:00 PM70 °FPassing clouds.8 mph64%29.98 "Hg30 mi
2:00 PM70 °FPassing clouds.12 mph57%29.98 "Hg30 mi
1:00 PM68 °FPassing clouds.12 mph60%29.99 "Hg30 mi
12:00 PM70 °FPassing clouds.14 mph64%29.99 "Hg30 mi
11:00 AM68 °FPassing clouds.15 mph60%29.99 "Hg30 mi
10:00 AM64 °FPassing clouds.12 mph68%29.98 "Hg30 mi
9:00 AM64 °FPassing clouds.13 mph73%29.98 "Hg30 mi
8:00 AM64 °FPassing clouds.12 mph73%29.97 "Hg30 mi
7:00 AM63 °FScattered clouds.17 mph73%29.96 "Hg20 mi
6:00 AM61 °FPassing clouds.18 mph83%29.95 "Hg20 mi
5:00 AM61 °FPassing clouds.15 mph83%29.94 "Hg20 mi
4:00 AM63 °FPassing clouds.20 mph77%29.93 "Hg20 mi
3:00 AM63 °FPassing clouds.16 mph77%29.93 "Hg20 mi
2:00 AM64 °FPassing clouds.16 mph73%29.93 "Hg20 mi
1:00 AM64 °FPassing clouds.14 mph83%29.92 "Hg20 mi
12:00 AM64 °FPassing clouds.9 mph83%29.91 "Hg20 mi
11:00 PM
Mon, Aug 3
66 °FPassing clouds.12 mph78%29.90 "Hg20 mi
10:00 PM66 °FPassing clouds.12 mph73%29.89 "Hg20 mi
9:00 PM66 °FPassing clouds.6 mph73%29.88 "Hg30 mi
8:00 PM68 °FPassing clouds.5 mph78%29.88 "Hg30 mi
7:00 PM70 °FBroken clouds.7 mph73%29.87 "Hg30 mi
Weather by CustomWeather, © 2015

See weather overviewHow to use our weather pages